TIME,DELAY(SENSOR),PRES,T(CTD),SAL,OXYGEN,RAWTEMP,T(OPTODE),TCPHASE,FLUOR,BETA(BETA700),BETA(BETA412),BETA(BETA440),CDOM,C(CSC),ED(ED411.90),ED(ED443.80),ED(ED489.40),ED(ED554.70),LU(LU412.20),LU(LU443.80),LU(LU489.40),LU(LU555.00),COMP,TILTX,TILTX(TILTY),CHECK
1349190837,5804,496.6700134277344000,17.3013000488281250,36.4211997985839840,225.3504028320312500,178.1490936279297000,17.3071594238281250,31.5219993591308600,50,101,93,66,54,13185,2146954404,2147518098,2147265289,2147466011,2147085531,2146955136,2147658761,2147123264,1191,-1,8,16514
1349190949,5804,486.1400146484375000,17.4006004333496100,36.4431991577148440,227.9580993652343800,175.1183929443359400,17.3985805511474600,31.3483600616455080,50,101,92,66,54,13187,2146956708,2147515574,2147266358,2147465883,2147086016,2146954916,2147654153,2147119606,629,-1,8,9078
1349191070,5805,474.7000122070312500,17.4960994720459000,36.4613990783691400,229.7606964111328000,172.0167999267578000,17.4921607971191400,31.2161903381347660,50,100,93,66,54,13186,2146958537,2147518208,2147269046,2147465490,2147086372,2146956745,2147655789,2147122697,202,-1,8,57027
1349191180,5807,464.1900024414062500,17.5653991699218750,36.4724006652832000,230.0677947998047000,169.3233947753906200,17.5734291076660160,31.1645107269287100,50,100,94,67,54,13187,2146958445,2147515456,2147267776,2147463808,2147088310,2146953984,2147657545,2147121499,3359,-1,8,51536
1349191292,5806,453.5199890136719000,17.6609001159667970,36.4916992187500000,231.3955993652343800,166.6385955810547000,17.6544494628906250,31.0626602172851560,50,101,93,67,53,13187,2146957988,2147516836,2147266742,2147465865,2147087085,2146953362,2147653366,2147117531,3207,-2,8,50947
1349191413,5804,442.0599975585937500,17.7268009185791000,36.5061988830566400,233.0673980712890600,164.3096923828125000,17.7247390747070300,30.9491004943847660,51,100,92,67,54,13183,2146956489,2147518381,2147263753,2147464210,2147089618,2146954578,2147655369,2147122541,3069,-1,8,29627
1349191523,5804,431.5100097656250000,17.7896003723144530,36.5167999267578100,234.3081054687500000,162.3153991699218800,17.7849292755126950,30.8621196746826170,50,100,91,67,53,13183,2146956571,2147516214,2147265133,2147465517,2147088841,2146956571,2147655158,2147121225,2884,-1,8,61394
1349191646,5805,419.8699951171875000,17.8381996154785160,36.5259017944335940,234.9620971679687500,160.7393035888672000,17.8325195312500000,30.8091201782226560,50,100,92,65,54,13185,2146957211,2147514486,2147264530,2147462893,2147089115,2146954112,2147654592,2147124150,2798,-1,8,43623
1349191756,5802,409.5700073242187500,17.8805007934570300,36.5331001281738300,235.3130950927734400,159.2859954833984400,17.8763904571533200,30.7726306915283200,50,102,92,66,55,13184,2146953700,2147515492,2147267053,2147461622,2147086528,2146956041,2147652525,2147128557,2328,-2,8,43783
1349191880,5805,398.2399902343750000,17.9253005981445300,36.5415000915527340,236.5762023925781200,157.7752075195312500,17.9220104217529300,30.6920299530029300,50,105,91,66,54,13185,2146955821,2147515638,2147266724,2147463707,2147088566,2146956928,2147655917,2147122294,2077,-1,9,28572
1349192001,5808,387.5899963378906000,17.9652996063232420,36.5462989807128900,236.1967926025390600,156.3473968505859400,17.9651203155517580,30.6908397674560550,51,102,93,67,53,13183,2146958436,2147515757,2147265782,2147459520,2147088438,2146956141,2147653211,2147125174,1783,-1,9,40754
1349192133,5809,376.4299926757812500,18.0237007141113280,36.5565986633300800,236.5726013183593800,154.5496063232422000,18.0194091796875000,30.6489791870117200,50,103,92,68,53,13184,2146956470,2147513883,2147263451,2147464978,2147088932,2146957074,2147652845,2147128173,1705,-1,9,4519
1349192267,5804,365.5700073242187500,18.0739994049072270,36.5611991882324200,236.9512023925781200,152.9161071777343800,18.0687503814697270,30.6092205047607420,50,101,93,66,53,13182,2146956132,2147514313,2147265590,2147463890,2147087241,2146961536,2147657042,2147121920,1544,-2,9,3602
1349192410,5805,354.3699951171875000,18.1161994934082030,36.5661010742187500,236.0213012695312500,151.3562011718750000,18.1158695220947270,30.6326808929443360,50,101,94,66,53,13183,2146958125,2147513618,2147266203,2147461988,2147087963,2146958656,2147654665,2147129618,980,-2,8,54672
1349192555,5807,341.9200134277344000,18.1765003204345700,36.5733985900878900,234.9161987304687500,149.4707946777343800,18.1728191375732420,30.6604995727539060,51,104,92,66,54,13180,2146957248,2147514486,2147264594,2147461558,2147087936,2146962276,2147656749,2147125878,411,-1,8,60229
1349192665,5804,330.8500061035156000,18.2210006713867200,36.5787010192871100,234.7122955322265600,147.9631958007812500,18.2183799743652340,30.6504993438720700,50,102,92,66,53,13181,2146957074,2147517001,2147264292,2147459108,2147084288,2146963474,2147655798,2147128969,3309,-1,9,12107
1349192775,5804,319.7000122070312500,18.2754001617431640,36.5839996337890600,233.8406066894531200,146.1289978027343800,18.2737998962402340,30.6679191589355470,50,101,93,66,54,13180,2146957110,2147515739,2147262418,2147458633,2147083309,2146964745,2147656448,2147130002,2978,-1,8,25298
1349192876,5805,309.1300048828125000,18.3353004455566400,36.5898017883300800,233.0458068847656200,144.2142944335937500,18.3316593170166000,30.6810092926025400,50,101,93,67,52,13178,2146956160,2147517110,2147267136,2147461129,2147088969,2146961974,2147659648,2147126016,2997,-1,8,22141
1349192986,5803,297.6000061035156000,18.4146995544433600,36.5950012207031250,231.8876037597656200,141.5937042236328000,18.4108695983886720,30.7025699615478500,51,101,92,66,54,13180,2146958153,2147517046,2147264832,2147460059,2147086272,2146963209,2147664694,2147122971,2560,-1,9,25159
1349193085,5804,287.1199951171875000,18.5109996795654300,36.6031990051269500,230.2758026123047000,138.5357971191406200,18.5033092498779300,30.7405490875244140,50,101,92,67,54,13176,2146959296,2147519936,2147265435,2147460352,2147082788,2146962285,2147670820,2147133275,2297,-1,8,35800
1349193204,5804,275.8599853515625000,18.5774002075195300,36.6074981689453100,229.1614074707031200,136.2920989990234400,18.5711593627929700,30.7655200958251950,51,101,92,66,54,13177,2146958244,2147513572,2147265234,2147459766,2147082971,2146967725,2147677339,2147128996,2199,-1,9,4824
1349193347,5801,264.2999877929687500,18.6989002227783200,36.6109008789062500,227.7404022216797000,132.1488952636718800,18.6964702606201170,30.7807903289794920,51,103,92,67,52,13179,2146956818,2147513536,2147263104,2147456832,2147080246,2146972745,2147685915,2147131300,2525,-1,8,11125
1349193482,5804,253.7299957275390600,18.8246002197265620,36.6184997558593750,226.7595977783203000,128.1062927246093800,18.8187808990478500,30.7758598327636720,50,101,92,66,54,13178,2146956269,2147515958,2147266002,2147457536,2147083346,2146978870,2147697718,2147134546,2791,-2,9,17373
1349193636,5802,242.3899993896484400,18.9494991302490230,36.6156005859375000,227.7572021484375000,123.9095001220703100,18.9457893371582030,30.6704597473144530,51,101,94,66,55,13177,2146956160,2147517010,2147265508,2147455424,2147085696,2146990043,2147718866,2147130816,1998,-1,9,7582
1349193779,5806,231.6199951171875000,19.0382003784179700,36.6048011779785160,231.9947052001953000,120.9477005004882800,19.0354595184326170,30.4233894348144530,51,102,92,66,53,13180,2146955181,2147518180,2147265810,2147457005,2147090569,2147000841,2147743268,2147134326,3038,-2,9,62610
1349193909,5803,220.1300048828125000,19.0401000976562500,36.5674018859863300,241.0117950439453000,120.7826004028320300,19.0404605865478500,29.9938392639160160,50,100,93,66,53,13180,2146954989,2147519122,2147268534,2147459794,2147087140,2147028973,2147779648,2147139693,3009,-1,9,27607
1349194030,5804,209.3699951171875000,19.1786994934082030,36.5769996643066400,244.0162963867187500,116.5208969116211000,19.1695308685302730,29.8000297546386720,51,100,93,66,54,13178,2146958701,2147519588,2147267958,2147458715,2147086838,2147054162,2147829668,2147136859,2848,-1,8,26378
1349194153,5806,198.6499938964843800,19.2290000915527340,36.5730018615722660,246.8932037353515600,114.7589035034179700,19.2229003906250000,29.6469192504882800,50,100,92,66,52,13180,2146955254,2147519296,2147272649,2147455963,2147090450,2147090761,2147895853,2147142729,2785,-1,8,2733
1349194208,5808,193.8600006103515600,19.2674999237060550,36.5765991210937500,246.8791961669922000,113.5169982910156200,19.2605304718017580,29.6313095092773440,50,100,92,66,52,13176,2146952118,2147522450,2147272091,2147455780,2147090825,2147108196,2147925037,2147139172,2688,-1,8,3133
1349194263,5808,189.0299987792968800,19.2851009368896500,36.5707015991210940,247.6634979248047000,112.8062973022461000,19.2820701599121100,29.5868606567382800,50,101,91,67,52,13179,2146953536,2147518774,2147276635,2147455040,2147094244,2147139483,2147978816,2147148269,2664,-1,9,21026
1349194318,5804,184.1699981689453000,19.3370990753173830,36.5740013122558600,247.7958068847656200,111.0723037719726600,19.3346195220947270,29.5586204528808600,51,101,92,67,53,13177,2146956873,2147522038,2147275776,2147453906,2147100534,2147165979,2148019730,2147149238,2557,-2,8,34756
1349194373,5805,179.3200073242187500,19.3717002868652340,36.5765991210937500,248.0800933837890600,110.0115966796875000,19.3667697906494140,29.5321998596191400,50,100,90,65,53,13177,2146959652,2147524342,2147275382,2147453293,2147098788,2147200576,2148076672,2147154633,2320,-2,8,49027
1349194447,5810,172.9499969482422000,19.4087009429931640,36.5769996643066400,248.6981048583984400,108.7101974487304700,19.4062194824218750,29.4877700805664060,51,100,92,65,53,13175,2146957970,2147525970,2147281883,2147455908,2147107574,2147250139,2148158811,2147158016,2773,-1,9,31549
1349194502,5806,168.5800018310547000,19.4346008300781250,36.5796012878418000,248.8350067138672000,107.9421997070312500,19.4295005798339840,29.4717903137207030,52,103,93,67,53,13177,2146959067,2147527917,2147280484,2147454290,2147110875,2147298459,2148229686,2147160950,2857,-2,9,53656
1349194557,5801,164.2299957275390600,19.4582004547119140,36.5816001892089840,248.5187988281250000,107.0388031005859400,19.4568805694580080,29.4742698669433600,55,100,91,64,52,13172,2146957805,2147530880,2147287689,2147452297,2147122962,2147351369,2148304438,2147164553,2880,-1,9,15443
1349194612,5807,159.9100036621093800,19.4829006195068360,36.5835990905761700,248.4315032958984400,106.3249969482421900,19.4785308837890620,29.4690608978271500,57,103,91,67,52,13174,2146956260,2147532406,2147287908,2147454528,2147138669,2147412745,2148399158,2147172150,2785,-1,9,45138
1349194667,5806,155.6199951171875000,19.5046997070312500,36.5844001770019500,248.3699035644531200,105.4992980957031200,19.5035705566406250,29.4611091613769530,54,102,93,66,51,13171,2146959424,2147532937,2147294098,2147451913,2147151286,2147485814,2148522852,2147180379,2518,-1,9,34115
1349194722,5806,151.3800048828125000,19.5519008636474600,36.5878982543945300,248.2254028320312500,103.8199005126953100,19.5545005798339840,29.4456501007080080,56,104,92,66,53,13171,2146960438,2147534683,2147298578,2147453019,2147162578,2147563136,2148634084,2147184164,2500,-2,9,31557
1349194800,5804,145.9799957275390600,19.6191005706787100,36.5943984985351560,248.2774963378906200,102.0100021362304700,19.6093902587890620,29.4200401306152340,61,107,92,65,52,13168,2146958939,2147539657,2147306358,2147454765,2147189284,2147657517,2148776868,2147196169,2440,-2,9,39873
1349194866,5807,142.1600036621093800,19.6555995941162100,36.5969009399414060,248.4008026123047000,100.7232971191406200,19.6484298706054700,29.3980903625488280,61,108,93,66,53,13162,2146956425,2147540361,2147309056,2147454006,2147209609,2147753673,2148913947,2147205632,1915,-2,9,89
1349194932,5804,138.4700012207031200,19.6721000671386720,36.5993003845214840,248.5130004882812500,100.1117019653320300,19.6669902801513670,29.3852806091308600,63,111,93,67,53,13157,2146960054,2147548598,2147319122,2147453513,2147237732,2147867401,2149082843,2147217398,1642,-1,9,26915
1349195009,5806,134.2100067138672000,19.7614002227783200,36.6068000793457000,248.1036987304687500,97.1592330932617200,19.7565803527832030,29.3654308319091800,65,108,93,67,53,13156,2146961142,2147551552,2147325056,2147454893,2147282788,2148018669,2149288896,2147230555,1869,-2,9,29118
1349195075,5805,130.6100006103515600,19.8281002044677730,36.6124992370605500,248.0914001464843800,94.8977279663086000,19.8252296447753900,29.3369102478027340,67,115,94,68,53,13156,2146962020,2147559350,2147340397,2147457371,2147318811,2148149238,2149463296,2147242304,2208,-2,9,43176
1349195154,5805,126.5699996948242200,19.9311008453369140,36.6198005676269500,247.7088928222656200,91.7395935058593800,19.9211292266845700,29.3134002685546880,71,114,94,67,53,13144,2146963254,2147565165,2147344512,2147455634,2147378011,2148333266,2149706249,2147265581,2107,-1,9,18092
1349195231,5807,122.6699981689453100,19.9913005828857420,36.6242980957031250,248.9674987792968800,89.5907897949218800,19.9863891601562500,29.2300395965576170,78,116,95,67,53,13140,2146967296,2147573065,2147356571,2147455497,2147441316,2148522834,2149956278,2147281883,2637,-2,9,27453
1349195319,5805,118.2699966430664000,20.0919990539550780,36.6352996826171900,247.2183990478515600,86.3268203735351600,20.0855598449707030,29.2656307220459000,86,117,93,68,53,13135,2146970925,2147579675,2147375744,2147454930,2147546925,2148811008,2150322605,2147314386,2861,-2,9,31695
1349195396,5805,114.4199981689453100,20.2042999267578120,36.6437988281250000,246.4492950439453000,82.8296813964843800,20.1918506622314450,29.2553005218505860,86,120,94,67,53,13134,2146975744,2147594678,2147402541,2147454317,2147661394,2149091821,2150676809,2147343268,3520,-1,9,9123
1349195475,5804,110.9300003051757800,20.3062000274658200,36.6492004394531250,246.2545013427734400,79.3666610717773400,20.2971591949462900,29.2195892333984380,95,120,95,67,53,13125,2146980534,2147603766,2147413677,2147455204,2147779099,2149384292,2151039808,2147369526,3243,-1,9,37400
1349195552,5807,107.8000030517578100,20.3495998382568360,36.6548995971679700,246.5245971679687500,77.8050003051757800,20.3446598052978500,29.1876792907714840,103,120,96,67,51,13118,2146991213,2147621046,2147451922,2147457353,2147929188,2149718006,2151454226,2147404955,355,-1,9,4328
1349195651,5806,104.0100021362304700,20.4188995361328120,36.6482009887695300,245.4842987060547000,75.4476089477539000,20.4163799285888670,29.2038993835449220,112,121,95,68,54,13109,2146998390,2147638189,2147486208,2147456676,2148134756,2150181202,2152032621,2147456905,545,-2,8,25883
1349195770,5806,99.7799987792968800,20.6639995574951170,36.6735992431640600,242.7545928955078000,67.8216323852539000,20.6485500335693360,29.2295303344726560,122,122,95,67,53,13105,2147008356,2147650678,2147484425,2147458148,2148373577,2150629138,2152555053,2147506102,3147,-2,9,233
1349195825,5803,97.5400009155273400,20.7646007537841800,36.6766014099121100,242.4846954345703000,64.2949829101562500,20.7559890747070300,29.1968193054199220,129,124,95,69,54,13095,2147012598,2147659830,2147493229,2147458048,2148542738,2150946550,2152955702,2147550637,2834,-1,9,28425
1349195880,5804,95.4100036621093800,20.8509006500244140,36.6818008422851560,242.3515930175781200,61.5859909057617200,20.8385601043701170,29.1681594848632800,132,126,94,67,52,13077,2147023698,2147670756,2147516333,2147457984,2148704813,2151223497,2153303908,2147588123,3015,-2,9,30874
1349195935,5806,93.4599990844726600,20.9736003875732420,36.6831016540527340,241.9091033935547000,57.6736297607421900,20.9578609466552730,29.1383399963378900,141,127,97,67,53,13072,2147032978,2147685293,2147545709,2147462034,2148880585,2151517366,2153686436,2147631286,3209,-1,9,2858
1349195990,5809,91.8600006103515600,21.0186996459960940,36.6871986389160160,242.5852050781250000,56.1615295410156250,21.0039901733398440,29.0884990692138670,149,126,94,68,53,13071,2147040914,2147701010,2147594706,2147465106,2149040932,2151816448,2154055058,2147674505,107,-1,9,25316
1349196080,5808,88.9100036621093800,21.1037006378173830,36.6791992187500000,244.5653076171875000,52.9976882934570300,21.1005306243896500,28.9596099853515620,142,122,95,68,53,13065,2147060059,2147740845,2147673810,2147472603,2149478528,2152586148,2155002861,2147784713,421,-1,9,59251
1349196135,5805,86.5400009155273400,21.1452999114990230,36.6801986694335940,246.2628936767578000,51.6413803100585940,21.1419391632080080,28.8666305541992200,144,123,95,69,53,13054,2147079085,2147769170,2147715794,2147470070,2149927862,2153340690,2155863085,2147889536,837,-1,9,20007
1349196190,5808,84.0500030517578100,21.2000999450683600,36.6801986694335940,247.3486022949218800,49.8569488525390600,21.1964206695556640,28.7961902618408200,148,123,96,69,52,13052,2147106304,2147812617,2147760438,2147475986,2150517677,2154372873,2157005814,2148011730,973,-2,9,19689
1349196245,5804,81.6800003051757800,21.3414001464843750,36.6797981262207000,248.2156982421875000,45.4296417236328100,21.3316593170166000,28.7022895812988280,141,123,96,66,52,13054,2147141421,2147873572,2147879981,2147489389,2151195565,2155510701,2158184841,2148150381,617,-1,9,51742
1349196300,5806,79.5899963378906200,21.4948005676269530,36.6721992492675800,249.9212951660156200,40.4412498474121100,21.4841403961181640,28.5651893615722660,124,122,95,69,53,13057,2147177289,2147927296,2147953664,2147491721,2151930614,2156691986,2159337792,2148291145,588,-2,9,39815
1349196355,5806,77.7399978637695300,21.6275997161865230,36.6678009033203100,251.7406005859375000,35.9940605163574200,21.6201801300048830,28.4308204650878900,115,118,95,68,52,13066,2147217261,2147987446,2148025984,2147499492,2152775652,2158074962,2160643995,2148426230,428,-2,9,11215
1349196433,5803,74.8399963378906200,21.8495006561279300,36.6740989685058600,253.0298004150390600,29.0124607086181640,21.8339405059814450,28.2883491516113280,91,117,94,69,53,13074,2147286244,2148080411,2148068617,2147494381,2154401837,2160650642,2162975853,2148703762,3508,-1,9,43158
1349196488,5808,72.2799987792968800,21.9307003021240230,36.6685981750488300,253.6517028808593800,25.7955093383789060,21.9325199127197270,28.2218303680419920,94,119,95,67,53,13061,2147365275,2148197174,2148215469,2147509321,2156160128,2163375689,2165383323,2148995803,29,-2,9,36473
1349196543,5806,69.7600021362304700,22.1814994812011720,36.6841011047363300,253.7996063232422000,18.7319793701171880,22.1491603851318360,28.1278190612792970,88,115,97,68,52,13062,2147439579,2148290276,2148246354,2147509147,2157904192,2165864475,2167552146,2149231296,3232,-2,9,37065
1349196598,5803,67.5899963378906200,22.2096004486084000,36.6880989074707000,254.1251068115234400,17.1473102569580080,22.1977996826171880,28.0942497253417970,84,116,95,68,52,13074,2147526336,2148394816,2148320210,2147512118,2159976640,2168892022,2170173229,2149532653,2950,-2,9,60756
1349196653,5807,65.6200027465820300,22.3983001708984380,36.6710014343261700,253.0057067871093800,10.9859304428100590,22.3870296478271500,28.0653495788574220,82,116,95,69,52,13070,2147630153,2148528676,2148478528,2147529362,2162106148,2171696868,2172319241,2149808950,3259,-2,9,9580
1349196708,5808,64.1399993896484400,22.5342998504638670,36.6697006225585940,252.7772979736328000,6.7903161048889160,22.5160102844238280,28.0231399536132800,85,118,96,67,53,13063,2147738953,2148678262,2148745051,2147566976,2164231158,2174532708,2174809261,2150109312,206,-2,9,64843
1349196786,5804,61.6899986267089840,22.8495998382568360,36.6637992858886700,253.6495971679687500,-3.1167359352111816,22.8209590911865230,27.8637905120849600,79,117,95,69,52,13069,2147937024,2148920027,2148938770,2147577389,2168448201,2180017792,2179243300,2150715776,1045,-2,9,64738
1349196841,5803,59.6399993896484400,22.9813003540039060,36.6557998657226560,254.0178985595703000,-8.6261720657348630,22.9907894134521500,27.7804794311523440,78,120,96,67,50,13060,2148103643,2149119277,2149139145,2147599515,2171993444,2184491264,2182600256,2151155300,1014,-2,9,19154
1349196896,5804,57.8400001525878900,23.3288993835449220,36.6315002441406250,256.4038085937500000,-18.2051391601562500,23.2865009307861330,27.5631599426269530,74,119,96,67,51,13068,2148238226,2149268717,2149238290,2147607460,2174729709,2187969600,2185520118,2151510235,1089,-2,9,31010
1349197151,5807,56.1399993896484400,23.6191005706787100,36.6059989929199200,258.1860046386719000,-27.3597297668457030,23.5696392059326170,27.3778800964355470,69,119,95,69,50,13062,2148505289,2149534208,2149468361,2147646290,2179822857,2193752045,2188759771,2151899309,174,-1,8,48340
1349197314,5808,53.1699981689453100,23.9463005065917970,36.6063995361328100,264.1794128417969000,-38.8603096008300800,23.9260902404785160,26.9956607818603500,67,124,96,69,52,13054,2148909229,2149973961,2149888576,2147706395,2187547949,2202592393,2195091602,2152734098,289,-2,9,15759
1349197348,5808,52.7200012207031250,23.9808006286621100,36.6059989929199200,266.5057067871094000,-40.1136512756347660,23.9649906158447270,26.8883895874023440,67,125,97,68,50,13058,2148923858,2149963382,2149743561,2147656411,2188280045,2203451282,2195617938,2152804288,1798,-2,9,27801
1349197452,5805,50.7799987792968750,24.1837997436523440,36.5974006652832000,269.2905883789062500,-46.7946090698242200,24.1725292205810550,26.6988296508789060,65,126,98,68,51,13056,2149279780,2150292827,2149799186,2147625828,2197374710,2214220498,2203457682,2153817572,2549,-1,9,59473
1349197557,5807,48.7900009155273440,24.4246006011962900,36.6049003601074200,267.0596008300781000,-54.1411705017089840,24.4011001586914060,26.6977500915527340,64,123,97,70,50,13057,2148445824,2149205632,2148782217,2147547300,2177070189,2183656274,2175019483,2150229504,3506,-2,9,34932
1349197721,5804,46.7599983215332000,24.7112998962402340,36.5850982666015600,265.7445068359375000,-63.5427207946777340,24.6941604614257800,26.6363906860351560,63,123,99,68,50,13050,2148462509,2149119506,2148602267,2147540470,2179223917,2184676077,2175069814,2150384091,3299,-2,9,28223
1349197814,5807,44.8800010681152340,25.0580997467041000,36.4720001220703100,264.6738891601562500,-74.1139068603515600,25.0244598388671880,26.5517692565917970,63,125,100,69,50,13040,2150444516,2151406518,2150593508,2147693449,2223238875,2241581366,2221471332,2156266203,2696,-2,9,20368
1349198086,5805,42.6899986267089840,25.6177005767822270,36.4434013366699200,261.8335876464844000,-89.2610168457031200,25.4992103576660160,26.4826507568359380,65,124,98,69,50,13031,2150960813,2151903268,2150912292,2147707456,2234635108,2252868260,2228384722,2157397595,2289,-1,9,622
1349198358,5808,40.6899986267089840,26.1296997070312500,36.4365005493164060,253.2404022216797000,-108.1211013793945300,26.0928993225097660,26.6036605834960940,63,126,97,68,51,13031,2151570020,2152535277,2151439104,2147764032,2248423954,2267630043,2239039451,2159087661,1855,-2,9,9832
1349198666,5808,38.9000015258789060,26.4645996093750000,36.4320983886718750,246.7967987060547000,-119.4812011718750000,26.4519290924072270,26.7354297637939450,62,121,97,70,52,13037,2152300534,2153310774,2152682258,2148253440,2261228242,2279849051,2246945261,2160622418,917,-2,9,29315
1349198711,5807,37.6800003051757800,26.6259002685546880,36.4576988220214840,244.5688018798828000,-124.3992004394531200,26.6077098846435550,26.7706203460693360,61,120,97,68,51,13046,2152202697,2153134006,2152180086,2148012434,2260911963,2278618304,2245552585,2160468278,1183,-2,9,37011
1349198996,5807,35.8800010681152340,27.2031002044677730,36.6306991577148440,240.9795074462890600,-141.6723022460937500,27.1565399169921880,26.7158603668212900,59,120,94,69,50,13059,2153153152,2153984109,2153008521,2148352841,2279724653,2297456914,2256498459,2162152347,486,-1,9,18741
1349199065,5804,33.5999984741210940,27.1623992919921880,36.4905014038085940,239.9929046630859400,-142.1954040527343800,27.1732101440429700,26.7522602081298830,58,120,95,69,50,13062,2153965046,2154743030,2153785069,2148685741,2297762459,2315429028,2268497947,2164350948,582,-2,9,33339